TimeCDT,TemperatureF,Dew PointF,Humidity,Sea Level PressureIn,VisibilityMPH,Wind Direction,Wind SpeedMPH,Gust SpeedMPH,PrecipitationIn,Events,Conditions,WindDirDegrees,DateUTC
12:53 AM,79.0,77.0,94,29.91,10.0,Calm,Calm,-,N/A,,Clear,0,2012-09-06 05:53:00
1:53 AM,80.6,78.8,94,29.88,10.0,SW,3.5,-,N/A,,Clear,220,2012-09-06 06:53:00
2:53 AM,81.0,78.1,91,29.92,10.0,West,4.6,-,N/A,,Clear,260,2012-09-06 07:53:00
3:53 AM,80.1,78.1,94,29.93,10.0,West,3.5,-,N/A,,Clear,280,2012-09-06 08:53:00
4:53 AM,79.0,77.0,94,29.93,7.0,Calm,Calm,-,N/A,,Clear,0,2012-09-06 09:53:00
5:53 AM,79.0,77.0,94,29.94,10.0,WSW,4.6,-,N/A,,Clear,250,2012-09-06 10:53:00
6:53 AM,78.1,77.0,96,29.95,7.0,Calm,Calm,-,N/A,,Clear,0,2012-09-06 11:53:00
7:53 AM,80.1,78.1,94,29.96,8.0,Calm,Calm,-,N/A,,Clear,0,2012-09-06 12:53:00
8:53 AM,82.9,78.1,85,29.96,10.0,West,4.6,-,N/A,,Clear,270,2012-09-06 13:53:00
9:53 AM,84.9,78.1,80,29.97,10.0,West,5.8,-,N/A,,Scattered Clouds,280,2012-09-06 14:53:00
10:53 AM,88.0,77.0,70,29.98,10.0,WNW,5.8,-,N/A,,Partly Cloudy,300,2012-09-06 15:53:00
11:53 AM,89.1,75.9,65,29.97,10.0,SW,3.5,-,N/A,,Clear,230,2012-09-06 16:53:00
12:53 PM,91.9,75.9,59,29.97,10.0,NW,4.6,-,N/A,,Scattered Clouds,310,2012-09-06 17:53:00
1:53 PM,93.9,75.0,54,29.94,10.0,Variable,3.5,-,N/A,,Scattered Clouds,0,2012-09-06 18:53:00
2:53 PM,93.9,73.9,52,29.92,10.0,Variable,3.5,-,N/A,,Partly Cloudy,0,2012-09-06 19:53:00
3:53 PM,93.0,75.0,56,29.90,10.0,ENE,3.5,-,N/A,,Partly Cloudy,70,2012-09-06 20:53:00
4:53 PM,93.0,75.0,56,29.89,10.0,SSW,5.8,-,N/A,,Clear,210,2012-09-06 21:53:00
5:53 PM,91.9,73.9,55,29.89,10.0,SSW,3.5,-,N/A,,Clear,210,2012-09-06 22:53:00
6:53 PM,88.0,79.0,75,29.88,10.0,SSW,6.9,-,N/A,,Clear,200,2012-09-06 23:53:00
7:53 PM,84.9,78.1,80,29.88,10.0,SW,5.8,-,N/A,,Clear,220,2012-09-07 00:53:00
8:53 PM,84.0,78.1,82,29.89,10.0,South,3.5,-,N/A,,Clear,190,2012-09-07 01:53:00
9:53 PM,82.9,78.1,85,29.91,10.0,SW,3.5,-,N/A,,Clear,220,2012-09-07 02:53:00
10:53 PM,82.0,78.1,88,29.91,10.0,SW,3.5,-,N/A,,Clear,230,2012-09-07 03:53:00
11:53 PM,82.0,78.1,88,29.91,10.0,Calm,Calm,-,N/A,,Clear,0,2012-09-07 04:53:00